Regional Weather Roundup
Issued by NWS Upton, NY

Current Version | Previous Version | Text Only | Print | Product List | Glossary Off
Versions: 1 2 3 4 5 6 7 8 9 10 11 12 13 14 15 16 17 18 19 20 21 22 23 24 25 26 27 28 29 30 31 32 33 34 35 36 37 38 39 40 41 42 43 44 45 46 47 48 49 50
000 ASUS41 KOKX 270405 RWROKX REGIONAL WEATHER ROUNDUP NATIONAL WEATHER SERVICE NEW YORK NY 1200 AM EDT WED JUL 27 2016 NOTE: "FAIR" INDICATES FEW OR NO CLOUDS BELOW 12,000 FEET WITH NO SIGNIFICANT WEATHER AND/OR OBSTRUCTIONS TO VISIBILITY. NYZ071-072-176-178-NJZ106-104-270500- NEW YORK CITY METRO AREA CITY SKY/WX TMP DP RH WIND PRES REMARKS Central Park PTCLDY 80 60 50 NW5 29.96R LaGuardia APRT MOCLDY 83 62 49 N8 29.92R Kennedy INTL MOCLDY 82 59 45 N7 29.93R Newark/Liberty CLOUDY 82 60 47 N8 29.92S Bronx Bot Gard N/A 79 61 53 N3 29.95R Wall St Helipt PTCLDY 82 63 51 CALM 29.93R Teterboro CLOUDY 80 59 48 CALM 29.92R $$ NYZ177-179-078>081-270500- LONG ISLAND NEW YORK CITY SKY/WX TMP DP RH WIND PRES REMARKS Farmingdale PTCLDY 79 62 56 MISG 29.92S MacArthur/ISP MOCLDY 76 66 71 NW7 29.91S Shirley CLEAR 73 63 70 NW5 29.92R Riverhead NOT AVBL Westhampton CLEAR 66 60 81 N5 29.93R Southhampton N/A 75 66 73 NW1 29.88 Bridgehampton N/A 73 64 73 CALM 29.91 East Hampton FAIR 69 64 84 CALM 29.91R Montauk N/A 76 64 66 W5 29.92R $$ NYZ052-065-067-270500- HUDSON VALLEY CITY SKY/WX TMP DP RH WIND PRES REMARKS White Plains PTCLDY 74 63 68 NW5 29.94R Newburgh PTCLDY 72 64 78 W6 29.97R Montgomery PTCLDY 68 64 87 CALM 29.95S Poughkeepsie MOCLDY 70 64 81 CALM 29.93R Albany PTCLDY 74 60 61 NW7 29.94R $$ NJZ001-105-106-008-010-013-015-019>022-104-270500- NEW JERSEY CITY SKY/WX TMP DP RH WIND PRES REMARKS Newark/Liberty CLOUDY 82 60 47 N8 29.92S Teterboro CLOUDY 80 59 48 CALM 29.92R Caldwell CLOUDY 74 64 71 CALM 29.94S Morristown CLOUDY 68 63 83 CALM 29.94S Somerville MOCLDY 73 67 81 CALM 29.91S Linden FAIR 81 59 47 CALM 29.94S Sussex CLOUDY 67 65 93 CALM 29.96R Abdover N/A 67 65 93 CALM 29.96S Trenton PTCLDY 79 66 64 CALM 29.92S Millville CLOUDY 77 73 87 CALM 29.93R Atlantic City CLOUDY 79 70 74 SW3 29.93R Wrightstown NOT AVBL Toms River PTCLDY 76 70 82 N7 29.93R Belmar PTCLDY 77 68 73 CALM 29.93S $$ PAZ047>061-062-071-270500- EASTERN PENNSYLVANIA CITY SKY/WX TMP DP RH WIND PRES REMARKS Philadelphia CLOUDY 82 73 74 S3 29.92S Allentown PTCLDY 73 66 78 CALM 29.94S Scranton MOCLDY 70 61 73 E5 29.98S $$ CTZ002-004>006-009-010-012-RIZ004-006-007-MAZ004-011-015-270500- SOUTHERN NEW ENGLAND IN CT CITY SKY/WX TMP DP RH WIND PRES REMARKS Bradley INTL CLOUDY 75 61 61 NW6 29.92R Hartford PTCLDY 81 62 52 N7 29.91R Danbury PTCLDY 68 63 84 SW3 29.96R Wtrbury/Oxford N/A 70 59 68 N3 29.96R Bridgeport CLOUDY 78 62 57 NW7 29.92R Meriden PTCLDY 70 63 78 CALM 29.93R New Haven MOCLDY 77 61 57 NW6 29.92R Chester FAIR 75 63 64 NW7 29.93R Groton PTCLDY 78 62 57 N8 29.89S Wilimantic NOT AVBL IN RI CITY SKY/WX TMP DP RH WIND PRES REMARKS Providence PTCLDY 79 61 53 NW6 29.90R Block Island MOCLDY 75 63 66 NW6 29.90R Westerly CLOUDY 78 60 53 VRB6 29.90R IN MA CITY SKY/WX TMP DP RH WIND PRES REMARKS Boston PTCLDY 81 59 47 N9 29.89R Worchester CLEAR 73 57 57 NW5 29.95R Westfield PTCLDY 71 63 75 NE3 29.92R Provincetown PTCLDY 74 65 73 NW5 29.88R Nantucket CLOUDY 73 67 81 CALM 29.86R $$ ANZ330-335-338-340-345-350-353-355-270500- COASTAL MARINE OBSERVATIONS STATION/POSITION TIME SKY/WX TEMP WIND PRES VSBY WAVE AIR SEA DIR/SP/G HT/PER (UTC) (F) (DEG/KT/KT) (MB) (MI) (FT/S) NY HARB ENTRANCE 0250 80 75 330/ 6/ 6 1012.7 2/ 7 20S FIRE ISLAND 0250 77 76 290/ 6/ 6 1012.3 3/ 7 GREAT SOUTH BAY NOT AVBL 23 SSW MONTAUK P 0250 73 70 260/ 10/ 10 1012.6 3/ 7 15 E BARNEGAT LI 0322 77 N/A 2/ 6 HUDSON CANYON 0250 79 78 1012.6 3/ 7 KINGS POINT 0300 72 N/A EXECUTION ROCKS 0300 77 320/ 4/ 4 N/A CENTRAL LI SOUND 0300 77 74 310/ 6/ 8 N/A 0 EASTERN LI SOUND 0300 75 69 340/ 6/ 8 N/A ROBBINS REEF 0300 360/ 7/ 8 N/A $$ >>>>>>>>>>>>>>>>>>>>>>>>>>>> KEY <<<<<<<<<<<<<<<<<<<<<<<<<<< > < > SKY/WX - Sky Condition/Present Weather < > TMP - Temperature in Fahrenheit < > DP - Dew Point in Fahrenheit < > RH - Relative Humidity in Percent < > WIND - Direction (from) and Speed in MPH < > PRES - Mean Sea Level Pressure (inches of Hg) < > WCI - Wind Chill Index < > VSB - VISIBILITY IN MILES < > HX - HEAT INDEX < > TC - TEMPERATURE IN CELSIUS < > VRB - VARIABLE WIND DIRECTION < > < >>>>>>>>>>>>>>>>>>>>>>>>>>>> KEY <<<<<<<<<<<<<<<<<<<<<<<<<<<

USA.gov is the U.S. government's official web portal to all federal, state and local government web resources and services.